Starlink 34809

operational
NORAD ID: 65069 Int'l Des: 2025-165 Owner: SPXS Country: US Constellation: starlink
LEOCIRCULARRETROGRADE

关于 Starlink 34809

正在加载描述...

实时位置

正在加载3D地球...

即将过境

高度历史

Altitude vs Time

uPlot chart will show altitude changes over time

两行轨道根数

1 65069U 25165P 25341.21048862 .00010355 00000-0 72042-3 0 9993
2 65069 97.6058 56.0487 0001513 82.4151 277.7248 15.05669128 20871
Epoch: Dec 7, 2025 • Age: 14 hours

当前状态

高度 553.6 km
速度 7.58 km/s
星下点 -5.19°S, 120.33°W
发射日期 Jul 31, 2025
运行时间 0.3 years
类型 internet

技术详情

分类 Payload
质量 575.00 kg
干质量 530.00 kg
总质量 575.00 kg
长度 0.30 m
直径 4.10 m
跨度 29.00 m
形状 Box + pan
制造商 SPXS
平台类型 Starlink V2MO
阶段状态 In Orbit
所有者/国家 SPXS/US

大型星座

Loading constellations...